Location: Round Knob
(37.2473°N, 88.7376°W)
Time: 14:29:03
(UTC+00:00)

Daily predictions for brighter satellites

Satellite Brightness Start Highest point End
(mag) Time Altitude Azimuth Time Altitude Azimuth Time Altitude Azimuth
Cosmos 1656 3.7 23:18:23 10° S 23:23:50 65° ESE 23:29:25 10° NNE
Cosmos 968 Rocket 4.5 23:21:19 10° N 23:25:35 25° ENE 23:29:48 10° ESE
Cosmos 1300 2.8 23:23:50 10° S 23:27:38 81° W 23:31:28 10° N
OAO 3 Rocket 4.3 23:23:06 10° W 23:27:40 40° SSW 23:32:07 10° SE
Aureole 3 Rocket 3.3 23:24:49 10° SSE 23:28:30 50° E 23:33:31 10° NNE
CZ-4B R/B 1.1 23:25:42 10° NNE 23:28:51 75° ESE 23:31:55 10° S
NOAA 12 4.1 23:23:53 10° SSE 23:29:10 82° ENE 23:34:30 10° N
SAR-Lupe-4 4.0 23:26:07 10° NNE 23:29:31 41° E 23:32:55 10° S
NOSS 3-3 (A) 4.1 23:24:18 10° S 23:29:43 50° ESE 23:35:43 10° NE
NOSS 3-3 (C) 4.1 23:24:25 10° S 23:29:51 49° ESE 23:35:49 10° NE
Cosmos 1400 Rocket 2.8 23:27:52 10° S 23:31:57 67° E 23:36:00 10° NNE
CZ-4B R/B 3.5 23:28:19 10° S 23:33:55 77° WSW 23:39:27 10° NNW
Cosmos 2369 4.3 23:31:38 10° SSE 23:36:47 36° ESE 23:41:56 10° NE
H-2A R/B 4.0 23:33:11 10° N 23:36:47 29° WNW 23:40:20 10° SW
Cosmos 1825 4.2 23:36:37 10° ENE 23:37:06 10° ENE 23:37:06 10° ENE
GPS 2-04 Rocket1 3.6 23:33:48 10° SW 23:37:31 39° SSE 23:41:13 11° E
ERS-2 2.5 23:34:42 10° N 23:38:20 69° WNW 23:41:57 10° SSW
COSMO-SKYMED 1 2.9 23:35:11 10° NNE 23:39:22 44° E 23:43:30 10° S
Cosmos 1302 Rocket 4.4 23:35:53 10° SSW 23:41:05 68° WNW 23:46:22 10° NNE
Helios 1A Rocket 4.0 23:38:06 10° ESE 23:41:22 23° ENE 23:44:37 10° NNE
OAO 2 Rocket 3.5 23:37:29 10° WSW 23:42:28 65° S 23:46:58 12° E
Cosmos 1244 Rocket 4.5 23:38:39 10° N 23:44:52 69° E 23:51:07 10° SSE
CZ-2D R/B 4.2 23:42:27 10° SE 23:45:40 26° ENE 23:48:52 10° NNE
SAR-Lupe-1 4.0 23:43:49 10° NNE 23:47:23 68° ESE 23:50:52 10° S
YAOGAN 1 3.8 23:44:17 10° ESE 23:47:25 20° ENE 23:50:34 10° NNE
Cosmos 1340 2.7 23:44:36 10° N 23:48:19 56° E 23:52:01 10° SSE
Cosmos 2227 Rocket 2.4 23:43:54 10° N 23:49:24 49° ENE 23:54:51 10° SE
CZ-4 R/B 2.4 23:48:20 10° ESE 23:51:24 23° ENE 23:54:28 10° NNE
Cosmos 1812 Rocket 4.5 23:49:26 10° SSE 23:53:08 27° E 23:56:49 10° NNE
Okean O Rocket 2.9 23:51:08 10° S 23:55:19 45° W 23:59:30 10° NNW
SL-4 R/B 4.1 23:56:35 10° N 23:57:42 11° NNE 23:58:50 10° NNE
